Tracking 31027 objects as of 19-Jul-2025
HD Live streaming from Space Station
objects crossing your sky now

COSMOS 1275 DEB

Track COSMOS 1275 DEB now!
10-day predictions


NORAD ID: 12671
Int'l Code: 1981-053AB
Perigee: 851.7 km
Apogee: 878.2 km
Inclination: 82.9 °
Period: 102.1 minutes
Semi major axis: 7235 km
RCS: 0.0812 m2 (small)
Launch date: June 4, 1981
Source: Commonwealth of Independent States (former USSR) (CIS)
Launch site: PLESETSK MISSILE AND SPACE COMPLEX (PKMTR)

Note: This is SATELLITE DEBRIS
Your satellite tracking list
STARLINK-3674
Track 1 satellite(s)




NASA's NSSDC Master Catalog

Two Line Element Set (TLE):
1 12671U 81053AB  25199.18253684  .00001601  00000-0  89020-3 0  9997
2 12671  82.9057  93.4592 0018269 164.6698 195.5035 14.10455260232742
Source of the keplerian elements: AFSPC